When you browse on this site, cookies collect data to enhance your experience and personalize the content and advertising you see.
Visit our Privacy Policy to learn more. By continuing to use the site, you agree to this use of cookies and data.
  • En España
  • Lista de países
  • Para 7 días
  • Temperatura del agua
  • El tiempo en el mapa
  • Informadores
  • user-avatar
    Iniciar sesión

    Tiempo cada hora Semey

    Hoy, 22 Noviembre, Viernes

    Tiempo Temperatura Precipitaciones Viento Presión Humedad
    00:00 -31°C° 0 mm 4 mps 759 mmHg 86%
    01:00 -31°C° 0 mm 4 mps 758 mmHg 86%
    02:00 -31°C° 0 mm 4 mps 758 mmHg 86%
    03:00 -30°C° 0 mm 4 mps 758 mmHg 86%
    04:00 -30°C° 0 mm 4 mps 758 mmHg 86%
    05:00 -30°C° 0 mm 4 mps 758 mmHg 87%
    06:00 -29°C° 0 mm 4 mps 757 mmHg 87%
    07:00 -27°C° 0 mm 3 mps 757 mmHg 87%
    08:00 -26°C° 0 mm 3 mps 757 mmHg 87%
    09:00 -25°C° 0 mm 3 mps 757 mmHg 85%
    10:00 -23°C° 0 mm 3 mps 758 mmHg 82%
    11:00 -22°C° 0 mm 3 mps 758 mmHg 79%
    12:00 -20°C° 0 mm 2 mps 758 mmHg 80%
    13:00 -19°C° 0 mm 2 mps 758 mmHg 81%
    14:00 -19°C° 0 mm 2 mps 759 mmHg 82%
    15:00 -20°C° 0 mm 2 mps 759 mmHg 83%
    16:00 -21°C° 0 mm 2 mps 760 mmHg 84%
    17:00 -23°C° 0 mm 2 mps 760 mmHg 85%
    18:00 -23°C° 0 mm 2 mps 760 mmHg 85%
    19:00 -23°C° 0 mm 2 mps 761 mmHg 85%
    20:00 -23°C° 0 mm 2 mps 761 mmHg 84%
    21:00 -24°C° 0 mm 3 mps 761 mmHg 84%
    22:00 -24°C° 0 mm 3 mps 762 mmHg 84%
    23:00 -24°C° 0 mm 3 mps 762 mmHg 84%

    Mañana, 23 Noviembre, Sábado

    Tiempo Temperatura Precipitaciones Viento Presión Humedad
    00:00 -24°C° 0 mm 3 mps 762 mmHg 83%
    01:00 -24°C° 0 mm 3 mps 762 mmHg 83%
    02:00 -24°C° 0 mm 3 mps 761 mmHg 83%
    03:00 -25°C° 0 mm 4 mps 761 mmHg 82%
    04:00 -25°C° 0 mm 4 mps 761 mmHg 81%
    05:00 -25°C° 0 mm 4 mps 761 mmHg 81%
    06:00 -25°C° 0 mm 4 mps 761 mmHg 80%
    07:00 -24°C° 0 mm 4 mps 761 mmHg 79%
    08:00 -25°C° 0 mm 5 mps 760 mmHg 79%
    09:00 -22°C° 0 mm 5 mps 760 mmHg 77%
    10:00 -21°C° 0 mm 5 mps 760 mmHg 76%
    11:00 -20°C° 0 mm 6 mps 760 mmHg 75%
    12:00 -20°C° 0 mm 6 mps 759 mmHg 76%
    13:00 -18°C° 0 mm 5 mps 759 mmHg 77%
    14:00 -17°C° 0 mm 5 mps 758 mmHg 78%
    15:00 -18°C° 0 mm 6 mps 758 mmHg 79%
    16:00 -18°C° 0 mm 6 mps 758 mmHg 79%
    17:00 -20°C° 0 mm 6 mps 758 mmHg 80%
    18:00 -20°C° 0 mm 6 mps 757 mmHg 80%
    19:00 -20°C° 0 mm 6 mps 757 mmHg 80%
    20:00 -18°C° 0 mm 6 mps 757 mmHg 80%
    21:00 -18°C° 0 mm 6 mps 756 mmHg 80%
    22:00 -18°C° 0 mm 5 mps 756 mmHg 80%
    23:00 -18°C° 0 mm 5 mps 756 mmHg 80%

    Pasado mañana, 24 Noviembre, Domingo

    Tiempo Temperatura Precipitaciones Viento Presión Humedad
    00:00 -18°C° 0 mm 5 mps 756 mmHg 80%
    01:00 -18°C° 0 mm 5 mps 755 mmHg 80%
    02:00 -17°C° 0 mm 5 mps 755 mmHg 80%
    03:00 -17°C° 0 mm 5 mps 755 mmHg 80%
    04:00 -17°C° 0 mm 5 mps 754 mmHg 80%
    05:00 -17°C° 0 mm 5 mps 754 mmHg 80%
    06:00 -16°C° 0 mm 4 mps 754 mmHg 80%
    07:00 -16°C° 0 mm 4 mps 754 mmHg 80%
    08:00 -16°C° 0 mm 4 mps 754 mmHg 80%
    09:00 -15°C° 0 mm 4 mps 753 mmHg 79%
    10:00 -14°C° 0 mm 4 mps 753 mmHg 77%
    11:00 -12°C° 0 mm 4 mps 753 mmHg 75%
    12:00 -12°C° 0 mm 4 mps 753 mmHg 78%
    13:00 -10°C° 0 mm 3 mps 753 mmHg 80%
    14:00 -10°C° 0 mm 3 mps 753 mmHg 83%
    15:00 -12°C° 0 mm 3 mps 753 mmHg 84%
    16:00 -13°C° 0 mm 3 mps 753 mmHg 84%
    17:00 -14°C° 0 mm 3 mps 753 mmHg 85%
    18:00 -14°C° 0 mm 3 mps 753 mmHg 85%
    19:00 -14°C° 0 mm 3 mps 753 mmHg 86%
    20:00 -14°C° 0 mm 3 mps 753 mmHg 86%
    21:00 -15°C° 0 mm 3 mps 753 mmHg 85%
    22:00 -15°C° 0 mm 3 mps 753 mmHg 85%
    23:00 -15°C° 0 mm 3 mps 754 mmHg 85%

    25 Noviembre, Lunes

    Tiempo Temperatura Precipitaciones Viento Presión Humedad
    00:00 -15°C° 0 mm 3 mps 754 mmHg 86%
    01:00 -15°C° 0 mm 3 mps 754 mmHg 86%
    02:00 -14°C° 0 mm 2 mps 754 mmHg 86%
    03:00 -14°C° 0 mm 2 mps 754 mmHg 87%
    04:00 -15°C° 0 mm 2 mps 754 mmHg 87%
    05:00 -15°C° 0 mm 2 mps 754 mmHg 87%
    06:00 -14°C° 0 mm 2 mps 754 mmHg 87%
    07:00 -14°C° 0 mm 2 mps 754 mmHg 87%
    08:00 -14°C° 0 mm 2 mps 754 mmHg 87%
    09:00 -13°C° 0 mm 2 mps 754 mmHg 87%
    10:00 -10°C° 0 mm 2 mps 755 mmHg 86%
    11:00 -9°C° 0 mm 2 mps 755 mmHg 86%
    12:00 -9°C° 0 mm 2 mps 755 mmHg 86%
    13:00 -9°C° 0 mm 2 mps 755 mmHg 87%
    14:00 -8°C° 0 mm 2 mps 755 mmHg 88%
    15:00 -9°C° 0 mm 2 mps 755 mmHg 88%
    16:00 -9°C° 0 mm 2 mps 755 mmHg 88%
    17:00 -10°C° 0 mm 3 mps 755 mmHg 88%
    18:00 -8°C° 0.1 mm 2 mps 755 mmHg 91%
    19:00 -8°C° 0.1 mm 2 mps 755 mmHg 93%
    20:00 -7°C° 0.1 mm 2 mps 755 mmHg 96%
    21:00 -7°C° 0.2 mm 2 mps 755 mmHg 96%
    22:00 -7°C° 0.2 mm 2 mps 755 mmHg 96%
    23:00 -6°C° 0.2 mm 1 mps 755 mmHg 96%

    26 Noviembre, Martes

    Tiempo Temperatura Precipitaciones Viento Presión Humedad
    00:00 -7°C° 0.1 mm 2 mps 755 mmHg 96%
    01:00 -7°C° 0.1 mm 2 mps 755 mmHg 96%
    02:00 -7°C° 0.1 mm 2 mps 755 mmHg 96%
    03:00 -7°C° 0.1 mm 2 mps 755 mmHg 95%
    04:00 -8°C° 0.1 mm 2 mps 755 mmHg 94%
    05:00 -8°C° 0.1 mm 2 mps 755 mmHg 93%
    06:00 -10°C° 0 mm 3 mps 755 mmHg 94%
    07:00 -10°C° 0 mm 3 mps 755 mmHg 94%
    08:00 -12°C° 0 mm 3 mps 755 mmHg 94%
    09:00 -12°C° 0 mm 3 mps 755 mmHg 92%
    10:00 -10°C° 0 mm 3 mps 755 mmHg 90%
    11:00 -10°C° 0 mm 3 mps 755 mmHg 88%
    12:00 -10°C° 0 mm 3 mps 755 mmHg 86%
    13:00 -10°C° 0 mm 3 mps 755 mmHg 84%
    14:00 -12°C° 0 mm 3 mps 755 mmHg 81%
    15:00 -12°C° 0 mm 3 mps 755 mmHg 81%
    16:00 -13°C° 0 mm 3 mps 755 mmHg 82%
    17:00 -14°C° 0 mm 3 mps 755 mmHg 82%
    18:00 -14°C° 0 mm 3 mps 755 mmHg 83%
    19:00 -13°C° 0 mm 3 mps 755 mmHg 83%
    20:00 -13°C° 0 mm 3 mps 755 mmHg 84%
    21:00 -13°C° 0 mm 3 mps 754 mmHg 85%
    22:00 -13°C° 0 mm 3 mps 754 mmHg 86%
    23:00 -12°C° 0 mm 3 mps 754 mmHg 86%

    27 Noviembre, Miércoles

    Tiempo Temperatura Precipitaciones Viento Presión Humedad
    00:00 -12°C° 0 mm 3 mps 753 mmHg 88%
    01:00 -12°C° 0 mm 3 mps 753 mmHg 91%
    02:00 -12°C° 0 mm 4 mps 753 mmHg 93%
    03:00 -11°C° 0.1 mm 4 mps 753 mmHg 93%
    04:00 -11°C° 0.1 mm 4 mps 753 mmHg 93%
    05:00 -10°C° 0.1 mm 4 mps 752 mmHg 93%
    06:00 -10°C° 0.2 mm 4 mps 753 mmHg 94%
    07:00 -9°C° 0.2 mm 3 mps 753 mmHg 94%
    08:00 -9°C° 0.2 mm 3 mps 753 mmHg 94%
    09:00 -10°C° 0.1 mm 4 mps 753 mmHg 93%
    10:00 -10°C° 0.1 mm 4 mps 753 mmHg 93%
    11:00 -10°C° 0.1 mm 5 mps 754 mmHg 92%
    12:00 -10°C° 0 mm 4 mps 754 mmHg 92%
    13:00 -11°C° 0 mm 4 mps 754 mmHg 92%
    14:00 -12°C° 0 mm 4 mps 755 mmHg 92%
    15:00 -13°C° 0 mm 3 mps 755 mmHg 93%
    16:00 -14°C° 0 mm 2 mps 755 mmHg 94%
    17:00 -15°C° 0 mm 2 mps 756 mmHg 94%
    18:00 -16°C° 0 mm 2 mps 756 mmHg 93%
    19:00 -16°C° 0 mm 2 mps 757 mmHg 92%
    20:00 -16°C° 0 mm 2 mps 757 mmHg 90%
    21:00 -17°C° 0 mm 2 mps 757 mmHg 90%
    22:00 -17°C° 0 mm 2 mps 757 mmHg 89%
    23:00 -17°C° 0 mm 2 mps 757 mmHg 88%
    Mostrar más